Fairbanks, AK

6:10 AM AKDT on October 18, 2019 (GMT -0800)
Fairbanks International

Weather History for PAFA - May, 2019

Change the Weather History Date:

Sunday, May 19, 2019

  Actual Average Record
Temperature  
Mean Temperature 57 °F 51 °F  
Max Temperature 69 °F 62 °F 77 °F (1990)
Min Temperature 45 °F 39 °F 20 °F (1918)
Degree Days  
Heating Degree Days 8 14  
Month to date heating degree days 273 343  
Since 1 July heating degree days 11535 13367  
Cooling Degree Days 0 0  
Month to date cooling degree days 0 0  
Year to date cooling degree days 0 0  
Growing Degree Days 7 (Base 50)    
Moisture  
Dew Point 42 °F    
Average Humidity 68    
Maximum Humidity 93    
Minimum Humidity 17    
Precipitation  
Precipitation T in 0.02 in 0.72 in (1959)
Month to date precipitation 0.59 0.33  
Year to date precipitation 3.07 1.89  
Snow  
Snow 0.00 in 0.00 in 0.10 in (1966)
Month to date snowfall T 0.8  
Since 1 July snowfall 57.5 64.9  
Snow Depth 0.00 in    
Sea Level Pressure  
Sea Level Pressure 29.76 in    
Wind  
Wind Speed 3 mph (East)    
Max Wind Speed 13 mph    
Max Gust Speed 18 mph    
Visibility 7 miles    
Events Fog    
T = Trace of Precipitation, MM = Missing Value Source: NWS Daily Summary

Daily Weather History Graph

Daily Weather History Graph

Search for Another Location

Airport or City:

Astronomy

May. 19, 2019 Rise Set
Actual Time 4:15 AM AKDT 11:23 PM AKDT
Civil Twilight 2:20 AM AKDT 1:15 AM AKDT
Nautical Twilight Sun does not rise Sun does not rise
Astronomical Twilight Sun does not rise Sun does not rise
Moon No Moon Rise 5:27 AM AKDT (5/19)
Length of Visible Light 22h 55m
Length of Day
19h 08m
Full, 99% of the Moon is Illuminated
May 19
Full
May 26
Last Quarter
Jun 3
New
Jun 9
First Quarter
Jun 17
Full

Hourly Weather History & Observations

Time (AKDT) Temp. Windchill Dew Point Humidity Pressure Visibility Wind Dir Wind Speed Gust Speed Precip Events Conditions
12:06 AM 48.9 °F - 46.0 °F 90% 29.77 in 10.0 mi SSW 3.5 mph - 0.00 in   Mostly Cloudy
12:53 AM 48.9 °F - 46.9 °F 93% 29.79 in 2.0 mi Calm Calm - 0.00 in   Overcast
1:23 AM 48.9 °F - 46.0 °F 90% 29.77 in 1.0 mi Calm Calm - 0.00 in   Mist
1:42 AM 48.9 °F - 46.0 °F 90% 29.78 in 0.2 mi East 4.6 mph - 0.00 in Fog Fog
1:49 AM 48.2 °F - 46.4 °F 93% 29.78 in 0.2 mi East 5.8 mph - 0.00 in Fog Fog
1:53 AM 48.0 °F - 46.0 °F 93% 29.80 in 0.2 mi East 5.8 mph - 0.00 in Fog Fog
2:53 AM 46.9 °F - 45.0 °F 93% 29.81 in 0.2 mi Calm Calm - N/A Fog Fog
3:07 AM 46.9 °F - 45.0 °F 93% 29.79 in 0.5 mi Calm Calm - N/A Fog Fog
3:53 AM 46.9 °F - 45.0 °F 93% 29.82 in 0.5 mi East 3.5 mph - N/A Fog Fog
4:08 AM 46.9 °F - 45.0 °F 93% 29.80 in 1.0 mi Calm Calm - N/A   Mist
4:43 AM 46.9 °F - 45.0 °F 93% 29.80 in 3.0 mi Calm Calm - N/A   Overcast
4:53 AM 46.9 °F - 45.0 °F 93% 29.82 in 4.0 mi Calm Calm - N/A   Overcast
5:34 AM 48.0 °F - 45.0 °F 89% 29.80 in 10.0 mi NE 3.5 mph - N/A   Overcast
5:53 AM 48.0 °F - 45.0 °F 89% 29.82 in 10.0 mi North 4.6 mph - N/A   Overcast
6:53 AM 46.0 °F 44.8 °F 44.1 °F 93% 29.81 in 7.0 mi ESE 3.5 mph - N/A   Overcast
7:53 AM 48.0 °F - 45.0 °F 89% 29.82 in 9.0 mi ESE 3.5 mph - N/A   Mostly Cloudy
8:30 AM 51.1 °F - 45.0 °F 80% 29.79 in 9.0 mi East 5.8 mph - N/A   Mostly Cloudy
8:48 AM 51.8 °F - 44.6 °F 76% 29.79 in 10.0 mi ENE 3.5 mph - N/A   Mostly Cloudy
8:53 AM 51.1 °F - 45.0 °F 80% 29.81 in 10.0 mi NNE 5.8 mph - N/A   Mostly Cloudy
9:53 AM 54.0 °F - 45.0 °F 72% 29.80 in 10.0 mi Calm Calm - N/A   Mostly Cloudy
10:53 AM 55.9 °F - 45.0 °F 67% 29.78 in 10.0 mi SSE 3.5 mph - N/A   Scattered Clouds
11:53 AM 60.1 °F - 44.1 °F 55% 29.77 in 10.0 mi Variable 3.5 mph - N/A   Mostly Cloudy
12:53 PM 62.1 °F - 39.9 °F 44% 29.76 in 10.0 mi ENE 5.8 mph - N/A   Mostly Cloudy
1:53 PM 64.0 °F - 37.9 °F 38% 29.75 in 10.0 mi Variable 4.6 mph - N/A   Mostly Cloudy
2:53 PM 64.9 °F - 35.1 °F 33% 29.73 in 10.0 mi SE 8.1 mph - N/A   Mostly Cloudy
3:53 PM 66.0 °F - 32.0 °F 28% 29.70 in 10.0 mi Variable 3.5 mph - N/A   Mostly Cloudy
4:53 PM 66.0 °F - 34.0 °F 30% 29.68 in 10.0 mi Calm Calm - N/A   Mostly Cloudy
5:53 PM 66.9 °F - 34.0 °F 30% 29.67 in 10.0 mi ESE 6.9 mph - N/A   Mostly Cloudy
6:53 PM 68.0 °F - 36.0 °F 31% 29.66 in 10.0 mi ENE 10.4 mph 18.4 mph N/A   Mostly Cloudy
7:14 PM 64.0 °F - 37.0 °F 37% 29.66 in 10.0 mi East 12.7 mph - N/A   Mostly Cloudy
7:53 PM 64.0 °F - 39.9 °F 41% 29.68 in 10.0 mi NNE 11.5 mph - N/A   Mostly Cloudy
8:53 PM 63.0 °F - 39.0 °F 41% 29.68 in 10.0 mi NE 6.9 mph - N/A   Mostly Cloudy
9:53 PM 57.9 °F - 41.0 °F 53% 29.69 in 10.0 mi South 5.8 mph - N/A   Mostly Cloudy
10:53 PM 55.0 °F - 41.0 °F 59% 29.68 in 10.0 mi Calm Calm - N/A   Mostly Cloudy
11:53 PM 51.1 °F - 42.1 °F 71% 29.68 in 10.0 mi Calm Calm - N/A   Mostly Cloudy